GXIBA-1

Last updated on Mon Sep 21 2026 00:02:05 GMT+0000 (Coordinated Universal Time)

1 67685U 98067YB 26262.48015762 .00085832 00000+0 59955-3 0 9994 2 67685 51.6228 174.3941 0008976 180.7732 179.3254 15.73504864 35074
UTC large
Height (km)
Speed (km/s)
/
Latitude / Longitude
Inclination (degrees)
Orbital Period (minutes)
Azimuth
Elevation
Range (km)
Doppler Factor

Next 0 passes for location: London (51.5072 / 0.1276)

No passes found over London.
GXIBA-1